Find Starlink 4783

NORAD ID: 53835 Int'l Des: 2022-114 Owner: SPXS Country: US Constellation: starlink operational
LEOCIRCULAR

实时位置

正在加载3D地球...

关于 Starlink 4783

正在加载描述...

即将过境

Passes for default location (London). Set your location on the main map for personalized predictions.

高度历史

Loading altitude history...

两行轨道根数

1 53835U 22114T 26129.42688968 .00004740 00000-0 31558-3 0 9995
2 53835 53.2189 31.2522 0001178 85.6825 274.4302 15.08851689202007
Epoch: May 9, 2026 • Age: 16 hours

当前状态

高度 559.0 km
速度 7.58 km/s
星下点 -53.12°S, 51.72°E
发射日期 Sep 19, 2022
运行时间 3.6 years
类型 internet

技术详情

分类 Payload
质量 305.00 kg
干质量 290.00 kg
总质量 305.00 kg
长度 0.20 m
直径 2.80 m
跨度 9.00 m
形状 Box + pan
制造商 SPXS
平台类型 Starlink
阶段状态 In Orbit
所有者/国家 SPXS/US

Most Searched